Lawrence, MA

7:28 PM EDT on March 26, 2017 (GMT -0400)
Lawrence Municipal

Weather History for KLWM - September, 2013

Change the Weather History Date:

Saturday, September 28, 2013

  Actual Average Record
Temperature  
Mean Temperature 60 °F -  
Max Temperature 73 °F 69 °F 86 °F (2014)
Min Temperature 48 °F 48 °F 33 °F (1947)
Degree Days  
Heating Degree Days 4    
Growing Degree Days 10 (Base 50)    
Moisture  
Dew Point 49 °F    
Average Humidity 72    
Maximum Humidity 89    
Minimum Humidity 45    
Precipitation  
Precipitation 0.00 in - - ()
Sea Level Pressure  
Sea Level Pressure 30.31 in    
Wind  
Wind Speed 2 mph (ENE)    
Max Wind Speed 9 mph    
Max Gust Speed -    
Visibility 9 miles    
Events      
Averages and records for this station are not official NWS values.
T = Trace of Precipitation, MM = Missing Value Source: NWS Daily Summary

Daily Weather History Graph

Daily Weather History Graph

Search for Another Location

Airport or City:

Trip Planner

Search our weather history database for the weather conditions in past years. The results will help you decide how hot, cold, wet, or windy it might be!

Date:

Astronomy

Sep. 28, 2013 Rise Set
Actual Time 6:38 AM EDT 6:30 PM EDT
Civil Twilight 6:10 AM EDT 6:58 PM EDT
Nautical Twilight 5:37 AM EDT 7:31 PM EDT
Astronomical Twilight 5:04 AM EDT 8:04 PM EDT
Moon 12:16 AM EDT (9/28) 2:54 PM EDT (9/28)
Length of Visible Light 12h 48m
Length of Day
11h 52m
Last Quarter, 36% of the Moon is Illuminated
Sep 28
Last Quarter
Oct 4
New
Oct 11
First Quarter
Oct 18
Full
Oct 26
Last Quarter

Hourly Weather History & Observations

Time (EDT) Temp. Dew Point Humidity Pressure Visibility Wind Dir Wind Speed Gust Speed Precip Events Conditions
12:54 AM 52.0 °F 48.0 °F 86% 30.28 in 10.0 mi SSW 3.5 mph - N/A   Clear
1:54 AM 51.1 °F 48.0 °F 89% 30.28 in 10.0 mi Calm Calm - N/A   Clear
2:54 AM 51.1 °F 46.0 °F 83% 30.28 in 10.0 mi Calm Calm - N/A   Clear
3:54 AM 50.0 °F 46.0 °F 86% 30.28 in 10.0 mi Calm Calm - N/A   Clear
4:54 AM 48.9 °F 45.0 °F 86% 30.29 in 10.0 mi Calm Calm - N/A   Clear
5:54 AM 48.9 °F 45.0 °F 86% 30.30 in 10.0 mi Calm Calm - N/A   Clear
6:54 AM 48.0 °F 45.0 °F 89% 30.32 in 10.0 mi Calm Calm - N/A   Clear
7:54 AM 52.0 °F 48.9 °F 89% 30.33 in 10.0 mi Calm Calm - N/A   Clear
8:54 AM 59.0 °F 52.0 °F 78% 30.35 in 10.0 mi Calm Calm - N/A   Clear
9:54 AM 64.0 °F 52.0 °F 65% 30.35 in 10.0 mi NNE 5.8 mph - N/A   Clear
10:54 AM 68.0 °F 53.1 °F 59% 30.35 in 10.0 mi NNE 3.5 mph - N/A   Clear
11:54 AM 71.1 °F 53.1 °F 53% 30.34 in 10.0 mi NE 5.8 mph - N/A   Clear
12:54 PM 72.0 °F 53.1 °F 51% 30.33 in 10.0 mi ENE 6.9 mph - N/A   Clear
1:54 PM 73.0 °F 53.1 °F 49% 30.32 in 10.0 mi East 8.1 mph - N/A   Clear
2:54 PM 71.1 °F 48.9 °F 45% 30.31 in 10.0 mi ENE 9.2 mph - N/A   Clear
3:54 PM 71.1 °F 50.0 °F 47% 30.31 in 10.0 mi East 8.1 mph - N/A   Clear
4:54 PM 69.1 °F 48.9 °F 49% 30.31 in 10.0 mi East 5.8 mph - N/A   Clear
5:54 PM 68.0 °F 46.9 °F 47% 30.31 in 10.0 mi East 4.6 mph - N/A   Clear
6:54 PM 62.1 °F 50.0 °F 65% 30.30 in 10.0 mi Calm Calm - N/A   Clear
7:54 PM 57.9 °F 51.1 °F 78% 30.30 in 10.0 mi Calm Calm - N/A   Clear
8:54 PM 55.9 °F 50.0 °F 80% 30.31 in 10.0 mi Calm Calm - N/A   Clear
9:54 PM 55.0 °F 50.0 °F 83% 30.31 in 10.0 mi Calm Calm - N/A   Clear
10:54 PM 52.0 °F 48.0 °F 86% 30.30 in 10.0 mi Calm Calm - N/A   Clear
11:36 PM 51.8 °F 48.2 °F 88% 30.29 in 1.8 mi Calm Calm - N/A   Clear
11:44 PM 51.8 °F 46.4 °F 82% 30.29 in 3.0 mi Calm Calm - N/A   Clear
11:54 PM 52.0 °F 46.9 °F 83% 30.29 in 4.0 mi Calm Calm - N/A   Haze